EW2309 Weather Reports


time (UTC)temp
C
wind
direction
speed
KPH
gust
KPH
rain 1hr
cm
rain 24hr
cm
rain mn
cm
humidity
%
barometer
mb
20260906130100 21 67 0.0 0.0 0.00 0.00 0.00 97 1012.1
20260906124540 21 71 0.0 0.0 0.00 0.00 0.00 96 1012.0
20260906123039 21 84 0.0 0.0 0.00 0.00 0.00 96 1012.0
20260906121526 21 86 0.0 0.0 0.00 0.00 0.00 95 1011.8
20260906120025 21 84 0.0 0.0 0.00 0.00 0.00 95 1011.7
20260906114535 21 82 0.0 0.0 0.00 0.00 0.00 95 1011.5
20260906113021 21 82 0.0 0.0 0.00 0.00 0.00 95 1011.4
20260906111519 21 78 0.0 0.0 0.00 0.00 0.00 95 1011.1
20260906110026 21 75 0.0 0.0 0.00 0.00 0.00 95 1011.0
20260906104519 21 80 0.0 0.0 0.00 0.00 0.00 95 1010.8
20260906103014 21 80 0.0 0.0 0.00 0.00 0.00 95 1010.6
20260906101554 21 78 0.0 0.0 0.00 0.00 0.00 93 1010.7
20260906100053 21 78 0.0 0.0 0.00 0.00 0.00 93 1010.8
20260906094559 21 79 0.0 0.0 0.00 0.00 0.00 93 1011.1
20260906093037 21 71 0.0 0.0 0.00 0.00 0.00 93 1010.9
20260906091514 21 64 0.0 0.0 0.00 0.00 0.00 92 1011.4
20260906090013 21 65 0.0 0.0 0.00 0.00 0.00 92 1011.5
20260906084555 22 63 0.0 0.0 0.00 0.00 0.00 92 1011.5
20260906083054 22 61 0.0 3.2 0.00 0.00 0.00 91 1011.7
20260906081546 22 60 0.0 0.0 0.00 0.00 0.00 90 1011.2
20260906080043 22 59 0.0 3.2 0.00 0.00 0.00 90 1010.9
20260906074517 22 82 0.0 3.2 0.00 0.00 0.00 90 1010.8
20260906073017 22 154 0.0 0.0 0.00 0.00 0.00 91 1011.0
20260906071558 22 154 0.0 3.2 0.00 0.00 0.00 91 1011.3
20260906070057 22 150 0.0 3.2 0.00 0.00 0.00 92 1011.7
20260906064539 22 323 0.0 0.0 0.00 0.00 0.00 92 1011.7
20260906063039 22 323 0.0 0.0 0.00 0.00 0.00 92 1011.6
20260906061532 22 323 0.0 0.0 0.00 0.00 0.00 92 1011.8
20260906060020 22 321 0.0 0.0 0.00 0.00 0.00 91 1011.4
20260906054502 22 321 0.0 0.0 0.00 0.00 0.00 91 1011.4
20260906053002 22 321 0.0 0.0 0.00 0.00 0.00 90 1011.0
20260906051644 22 321 0.0 0.0 0.00 0.00 0.00 90 1010.9
20260906050045 22 321 0.0 0.0 0.00 0.00 0.00 89 1011.0
20260906044530 22 321 0.0 0.0 0.00 0.00 0.00 89 1011.3
20260906043025 22 321 0.0 0.0 0.00 0.00 0.00 89 1011.4
20260906041507 22 321 0.0 0.0 0.00 0.00 0.00 88 1011.5
20260906040007 23 321 0.0 0.0 0.00 0.00 0.00 88 1011.4
20260906034600 23 321 0.0 0.0 0.00 0.00 0.00 87 1011.4
20260906033048 23 321 0.0 0.0 0.00 0.00 0.00 87 1011.5
20260906031544 23 321 0.0 0.0 0.00 0.00 0.00 86 1011.7
20260906030031 23 321 0.0 0.0 0.00 0.00 0.00 86 1011.5
20260906024511 23 321 0.0 0.0 0.00 0.00 0.00 86 1011.4
20260906023015 23 321 0.0 0.0 0.00 0.00 0.00 86 1011.0
20260906021603 23 321 0.0 0.0 0.00 0.00 0.00 85 1010.9
20260906020058 23 321 0.0 0.0 0.00 0.00 0.00 85 1010.9
20260906014539 23 321 0.0 0.0 0.00 0.00 0.00 84 1010.8
20260906013039 24 321 0.0 0.0 0.00 0.00 0.00 83 1010.7
20260906011616 25 321 0.0 0.0 0.00 0.00 0.00 82 1010.5
20260906010015 25 321 0.0 0.0 0.00 0.00 0.00 81 1010.3
20260906004603 25 321 0.0 0.0 0.00 0.00 0.00 80 1010.4
20260906003157 26 321 0.0 0.0 0.00 0.00 0.00 80 1010.1
20260906001539 26 321 0.0 0.0 0.00 0.00 0.00 78 1010.0
20260906000039 27 321 0.0 0.0 0.00 0.00 0.00 76 1010.1
20260905234522 27 321 0.0 0.0 0.00 0.00 0.00 74 1010.5
20260905233027 28 298 0.0 0.0 0.00 0.00 0.00 73 1010.4
20260905231505 28 297 0.0 0.0 0.00 0.00 0.00 71 1010.2
20260905230002 28 297 0.0 3.2 0.00 0.00 0.00 71 1009.9
20260905224551 29 297 0.0 1.6 0.00 0.00 0.00 69 1009.9
20260905223045 30 297 0.0 1.6 0.00 0.00 0.00 67 1009.7
20260905221537 30 297 1.6 3.2 0.00 0.00 0.00 66 1009.9
20260905220022 30 63 1.6 4.8 0.00 0.00 0.00 64 1010.2
20260905214505 30 246 1.6 6.4 0.00 0.00 0.00 66 1010.6
20260905213003 31 76 1.6 4.8 0.00 0.00 0.00 66 1010.6
20260905211548 30 159 0.0 1.6 0.00 0.00 0.00 68 1010.5
20260905210103 31 159 0.0 1.6 0.00 0.00 0.00 65 1010.2
20260905204528 31 159 0.0 3.2 0.00 0.00 0.00 62 1010.2
20260905203031 31 216 3.2 9.7 0.00 0.00 0.00 65 1010.2
20260905201506 32 240 0.0 1.6 0.00 0.00 0.00 61 1010.6
20260905200004 32 240 0.0 3.2 0.00 0.00 0.00 61 1010.7
20260905194545 32 220 1.6 6.4 0.00 0.00 0.00 60 1010.9
20260905193045 32 238 3.2 6.4 0.00 0.00 0.00 64 1010.9
20260905191539 32 28 0.0 1.6 0.00 0.00 0.00 64 1010.9
20260905190032 33 28 1.6 6.4 0.00 0.00 0.00 59 1010.9
20260905184535 33 243 0.0 1.6 0.00 0.00 0.00 58 1011.0
20260905183029 35 242 0.0 1.6 0.00 0.00 0.00 54 1011.2
20260905181527 34 170 0.0 6.4 0.00 0.00 0.00 57 1011.4
20260905180028 35 78 1.6 4.8 0.00 0.00 0.00 55 1011.5
20260905174521 34 55 0.0 4.8 0.00 0.00 0.00 55 1011.7
20260905173019 33 67 1.6 6.4 0.00 0.00 0.00 59 1011.8
20260905171606 33 32 1.6 4.8 0.00 0.00 0.00 60 1012.0
20260905170058 32 106 0.0 8.0 0.00 0.00 0.00 60 1012.0
20260905164538 32 80 1.6 3.2 0.00 0.00 0.00 60 1012.3
20260905163031 32 52 0.0 4.8 0.00 0.00 0.00 66 1012.6
20260905161512 31 42 1.6 4.8 0.00 0.00 0.00 71 1012.7
20260905160015 30 41 0.0 3.2 0.00 0.00 0.00 72 1012.9
20260905154604 30 42 1.6 4.8 0.00 0.00 0.00 76 1012.8
20260905153043 28 40 0.0 3.2 0.00 0.00 0.00 77 1012.9
20260905151540 28 40 0.0 6.4 0.00 0.00 0.00 80 1013.0
20260905150018 27 39 0.0 3.2 0.00 0.00 0.00 81 1013.0
20260905144521 27 40 0.0 3.2 0.00 0.00 0.00 86 1013.2
20260905143055 26 40 0.0 4.8 0.00 0.00 0.00 87 1013.1
20260905141551 25 319 0.0 0.0 0.00 0.00 0.00 93 1013.3
20260905140039 24 319 0.0 0.0 0.00 0.00 0.00 94 1013.3
20260905134534 24 319 0.0 0.0 0.00 0.00 0.00 96 1013.3
20260905133032 23 319 0.0 0.0 0.00 0.00 0.00 97 1013.4
20260905131530 23 319 0.0 0.0 0.00 0.00 0.00 97 1013.5